EST,Max TemperatureF,Mean TemperatureF,Min TemperatureF,Max Dew PointF,MeanDew PointF,Min DewpointF,Max Humidity, Mean Humidity, Min Humidity, Max Sea Level PressureIn, Mean Sea Level PressureIn, Min Sea Level PressureIn, Max VisibilityMiles, Mean VisibilityMiles, Min VisibilityMiles, Max Wind SpeedMPH, Mean Wind SpeedMPH, Max Gust SpeedMPH,PrecipitationIn, CloudCover, Events, WindDirDegrees
2013-11-1,64,60,57,59,54,39,94,83,48,29.71,29.43,29.23,10,8,3,21,10,33,0.34,5,,197
2013-11-2,62,52,39,45,39,30,81,63,42,29.77,29.60,29.51,10,10,3,20,6,24,0.01,4,,248
2013-11-3,41,36,28,36,21,14,87,55,36,30.35,30.07,29.78,10,10,6,17,12,23,0.03,3,,346
2013-11-4,41,32,24,18,15,12,74,53,33,30.67,30.57,30.39,10,10,10,14,8,20,0.00,0,,350
2013-11-5,46,34,21,28,24,16,93,71,46,30.68,30.59,30.45,10,10,10,12,2,18,0.00,0,,189
2013-11-6,53,42,30,45,36,28,93,81,54,30.45,30.23,29.92,10,10,10,13,5,22,0.06,1,,199
2013-11-7,55,47,39,54,42,25,94,76,53,29.90,29.71,29.60,10,10,7,15,10,23,0.05,6,,241
2013-11-8,44,38,32,27,22,19,65,51,39,29.91,29.79,29.72,10,10,10,17,8,24,0.00,5,,274
2013-11-9,42,34,26,23,19,18,75,51,36,30.05,30.01,29.91,10,10,10,16,9,24,0.00,3,,290
2013-11-10,37,34,30,36,31,21,93,88,69,30.03,29.78,29.67,10,7,2,6,2,,0.02,6,,298
2013-11-11,42,38,33,34,28,25,93,65,49,29.95,29.85,29.68,10,10,3,16,6,22,0.00,5,,254
2013-11-12,39,32,26,28,16,10,70,53,41,30.05,29.94,29.76,10,10,10,16,9,24,0.00,2,,284
2013-11-13,30,26,21,10,10,9,63,52,40,30.16,30.10,30.03,10,10,10,14,7,20,0.00,0,,276
2013-11-14,44,34,24,27,21,12,80,60,42,30.03,29.98,29.94,10,10,10,17,5,24,0.00,3,,221
2013-11-15,48,37,26,30,25,21,93,66,34,30.15,30.08,30.03,10,10,10,7,3,,0.00,0,,206
2013-11-16,50,39,28,30,26,21,87,71,40,30.31,30.24,30.15,10,10,10,7,1,,0.00,2,,359
2013-11-17,42,36,30,41,35,27,100,90,80,30.33,30.21,29.91,10,3,0,7,2,,0.06,8,,1
2013-11-18,60,51,42,55,44,27,100,73,43,29.90,29.54,29.42,10,7,1,15,6,23,0.47,6,,206
2013-11-19,46,38,30,28,18,12,53,47,41,30.15,29.83,29.52,10,10,10,18,11,34,0.00,4,,285
2013-11-20,37,30,21,12,9,7,68,43,28,30.59,30.42,30.15,10,10,10,20,11,28,0.00,0,,333
2013-11-21,44,32,19,21,15,10,86,55,25,30.59,30.47,30.29,10,10,10,7,1,,0.00,0,,201
2013-11-22,37,30,24,32,26,16,93,77,59,30.28,30.05,29.73,10,9,0,8,1,,0.00,6,,218
2013-11-23,37,32,26,34,19,12,100,59,36,29.73,29.68,29.61,10,9,1,26,10,41,0.00,2,,272
2013-11-24,24,20,17,12,2,0,59,45,36,29.91,29.70,29.62,10,10,10,36,18,45,0.00,2,,294
2013-11-25,26,20,15,5,0,-2,49,41,31,30.24,30.14,29.92,10,10,5,22,11,32,0.00,1,,265
2013-11-26,30,27,24,27,21,5,93,77,43,30.25,30.21,30.14,10,8,1,8,3,,0.00,6,,197
2013-11-27,57,42,28,55,43,27,100,93,81,30.12,29.47,29.14,10,5,2,17,6,29,1.69,8,,184
2013-11-28,37,28,19,32,12,3,87,54,37,30.32,29.85,29.24,10,10,7,21,10,33,0.19,3,,278
2013-11-29,24,18,12,9,5,1,85,56,36,30.68,30.49,30.32,10,10,10,15,7,20,0.00,1,,314
2013-11-30,26,17,8,18,8,3,92,66,37,30.76,30.63,30.37,10,10,6,9,1,,0.00,1,,188